[[{"header":{"parameterUnit":"m.s-1","parameterCategory":1,"la1":30.2992,"la2":30.254,"lo1":-89.0895,"lo2":-89.0443,"dy":0.0025,"dx":0.0025,"nx":19,"ny":19,"refTime":"2026-04-22T21:00:00:Z","depth":0,"parameterNumber":2,"parameterNumberName":"U-component_of_WINDS"},"data":[0,0,0,-3.8677,-3.8678,-3.8739,-3.8739,-3.8823,-3.8824,0,0,0,0,0,0,0,0,0,0,0,-3.8664,-3.8665,-3.8677,-3.8679,-3.8739,-3.8739,-3.8823,-3.8824,0,0,0,0,0,0,0,0,0,0,0,-3.8664,-3.8665,-3.8666,-3.8679,-3.8739,-3.8739,-3.8823,-3.8775,0,0,0,0,0,0,0,0,0,0,-3.8715,-3.8708,-3.8664,-3.8666,-3.8679,-3.8739,-3.8739,-3.8772,-3.8778,-3.8799,0,-3.882,0,-3.8824,-3.883,-3.883,0,0,0,-3.8675,-3.8703,-3.8715,-3.8666,-3.868,-3.8738,-3.871,-3.8775,-3.8781,-3.8807,-3.8821,-3.8824,-3.8825,-3.8831,-3.8831,-3.897,-3.8971,0,0,-3.8671,-3.8677,-3.8711,-3.872,-3.8711,-3.8709,-3.8712,-3.8779,-3.8795,-3.8822,-3.8826,-3.8826,-3.8831,-3.8832,-3.8969,-3.897,0,0,0,-3.8664,-3.8675,-3.8685,-3.8716,-3.8727,-3.871,-3.8715,-3.8792,-3.8795,-3.8827,-3.8827,-3.8832,-3.8833,-3.8968,-3.897,-3.9016,0,0,0,-3.8662,-3.8671,-3.8684,-3.8688,-3.8726,-3.876,-3.8727,-3.879,-3.8798,-3.8827,-3.8832,-3.8834,-3.8967,-3.8969,-3.9013,-3.9036,0,0,0,-3.8658,-3.8671,-3.8681,-3.8689,-3.8715,-3.8759,-3.8766,-3.8792,-3.8798,-3.8831,-3.8834,-3.8967,-3.8969,-3.901,-3.9032,-3.9074,0,0,0,-3.8656,-3.8721,-3.8682,-3.8755,-3.8714,-3.8788,-3.8765,-3.8819,-3.8853,-3.8832,-3.8968,-3.8969,-3.9009,-3.9029,-3.9071,-3.911,-3.9128,0,0,-3.8742,-3.8732,-3.8774,-3.8741,-3.8823,-3.8778,-3.8867,-3.8892,-3.8889,-3.8943,-3.8946,-3.9014,-3.9031,-3.9074,-3.9224,-3.9238,0,0,0,-3.8804,-3.8834,-3.8855,-3.8887,-3.8908,-3.8928,-3.8939,-3.8948,-3.8994,-3.8918,-3.9041,-3.9051,-3.9076,-3.9094,-3.9106,-3.9126,-3.8979,-3.8978,-3.8978,-3.8932,-3.8926,-3.8996,-3.8998,-3.903,-3.9041,-3.9066,-3.908,-3.9064,-3.9094,-3.9109,-3.9201,-3.9223,-3.9232,-3.9253,-3.9131,-3.9131,-3.9131,-3.9131,-3.9056,-3.9098,-3.9077,-3.9137,-3.913,-3.9181,-3.9195,-3.9182,-3.9227,-3.9189,-3.921,-3.9168,-3.9247,-3.9265,-3.9135,-3.9134,-3.9133,-3.9133,-3.9133,-3.9138,-3.9157,-3.9168,-3.9215,-3.9252,-3.9252,-3.9297,-3.929,-3.9283,-3.9304,-3.9319,-3.9318,-3.9316,-3.9312,-3.9313,-3.9313,-3.9313,-3.9313,-3.9314,-3.9219,-3.923,-3.9269,-3.9298,-3.9318,-3.9344,-3.9357,-3.9376,-3.9396,-3.9387,-3.9387,-3.9368,-3.9257,-3.9228,-3.9319,-3.9318,-3.9317,-3.9317,-3.9316,-3.9344,-3.9315,-3.9375,-3.9396,-3.9429,-3.9466,-3.9457,-3.9498,-3.9513,-3.9536,-3.9513,-3.9432,-3.9421,-3.9412,-3.9388,-3.9515,-3.9515,-3.9515,-3.9515,-3.9412,-3.9407,-3.9467,-3.95,-3.9532,-3.953,-3.9598,-3.961,-3.9616,-3.9625,-3.9607,-3.9575,-3.9566,-3.956,-3.9548,-3.9525,-3.9684,-3.9684,-3.9684,-3.9489,-3.9486,-3.9546,-3.9552,-3.9579,-3.9601,-3.9665,-3.9704,-3.9705,-3.9691,-3.9632,-3.9625,-3.9574,-3.9558,-3.954,-3.952,-3.9479,0,0]},{"header":{"parameterUnit":"m.s-1","parameterCategory":1,"la1":30.2992,"la2":30.254,"lo1":-89.0895,"lo2":-89.0443,"dy":0.0025,"dx":0.0025,"nx":19,"ny":19,"refTime":"2026-04-22T21:00:00:Z","depth":0,"parameterNumber":3,"parameterNumberName":"V-component_of_WINDS"},"data":[0,0,0,4.568,4.5682,4.576,4.576,4.5856,4.5857,0,0,0,0,0,0,0,0,0,0,0,4.5656,4.5656,4.568,4.5682,4.576,4.576,4.5856,4.5857,0,0,0,0,0,0,0,0,0,0,0,4.5655,4.5656,4.5657,4.5682,4.576,4.576,4.5856,4.5798,0,0,0,0,0,0,0,0,0,0,4.5722,4.5699,4.5656,4.5657,4.5683,4.576,4.576,4.5795,4.5801,4.5819,0,4.5836,0,4.5848,4.5863,4.5863,0,0,0,4.5682,4.5694,4.5716,4.5657,4.5683,4.576,4.5725,4.5798,4.5806,4.5827,4.5837,4.5841,4.585,4.5864,4.5864,4.5971,4.5971,0,0,4.5678,4.5668,4.5711,4.5721,4.5711,4.5722,4.5727,4.5803,4.5812,4.5838,4.5843,4.5851,4.5864,4.5865,4.5971,4.5971,0,0,0,4.5665,4.5665,4.5686,4.5717,4.5731,4.5725,4.573,4.5809,4.5817,4.5844,4.5852,4.5865,4.5866,4.597,4.5971,4.5987,0,0,0,4.5662,4.5658,4.5684,4.5679,4.573,4.5772,4.5735,4.5811,4.582,4.5852,4.5865,4.5867,4.597,4.597,4.5986,4.5996,0,0,0,4.5651,4.5657,4.5668,4.5679,4.5712,4.5771,4.5783,4.5814,4.5825,4.5863,4.5867,4.5969,4.597,4.5984,4.5994,4.6022,0,0,0,4.5635,4.568,4.5668,4.5721,4.5712,4.5781,4.5782,4.5834,4.5868,4.5865,4.597,4.5971,4.5984,4.5992,4.6021,4.6045,4.6054,0,0,4.5686,4.5685,4.5718,4.571,4.5779,4.577,4.5841,4.588,4.5891,4.5943,4.5946,4.5986,4.5994,4.6022,4.6109,4.6117,0,0,0,4.5731,4.5754,4.5774,4.5808,4.5841,4.587,4.5899,4.5914,4.596,4.5917,4.6005,4.6009,4.6026,4.6038,4.6044,4.6059,4.5976,4.5976,4.5976,4.5789,4.5803,4.5857,4.5881,4.5913,4.5945,4.5973,4.5998,4.6,4.602,4.6036,4.6087,4.6101,4.6106,4.6122,4.605,4.605,4.605,4.605,4.5865,4.59,4.5905,4.5959,4.5973,4.6018,4.605,4.6051,4.6094,4.6076,4.6092,4.6071,4.6113,4.6128,4.6051,4.6051,4.6051,4.6051,4.6051,4.5904,4.5924,4.5943,4.5995,4.6033,4.6055,4.6097,4.6108,4.6118,4.6133,4.6151,4.6151,4.6152,4.6141,4.6141,4.6141,4.6142,4.6142,4.6142,4.5938,4.5959,4.5994,4.6035,4.6059,4.6092,4.6125,4.6149,4.6177,4.6181,4.6182,4.6182,4.6116,4.6099,4.6145,4.6144,4.6144,4.6144,4.6143,4.6009,4.5996,4.605,4.6075,4.6124,4.6162,4.6175,4.6223,4.6243,4.6264,4.6262,4.6211,4.621,4.6205,4.6191,4.6259,4.6259,4.6259,4.6259,4.6043,4.6044,4.6104,4.6143,4.6182,4.62,4.6261,4.6288,4.6312,4.6326,4.6318,4.6301,4.6295,4.6297,4.6291,4.6278,4.6366,4.6366,4.6366,4.6088,4.6094,4.6144,4.6171,4.6211,4.6244,4.6302,4.6345,4.6369,4.637,4.6337,4.6333,4.6304,4.6295,4.6294,4.6283,4.6259,0,0]}]]